CST,Max TemperatureF,Mean TemperatureF,Min TemperatureF,Max Dew PointF,MeanDew PointF,Min DewpointF,Max Humidity, Mean Humidity, Min Humidity, Max Sea Level PressureIn, Mean Sea Level PressureIn, Min Sea Level PressureIn, Max VisibilityMiles, Mean VisibilityMiles, Min VisibilityMiles, Max Wind SpeedMPH, Mean Wind SpeedMPH, Max Gust SpeedMPH,PrecipitationIn, CloudCover, Events, WindDirDegrees
2014-2-1,32,28,24,30,26,19,93,88,80,30.16,29.93,29.75,10,3,0,10,3,17,0.00,8,,44
2014-2-2,24,19,12,19,14,9,86,79,73,30.36,30.28,30.16,10,10,5,0,0,,0.00,5,,-1
2014-2-3,30,18,6,19,11,1,85,72,59,30.39,30.31,30.25,10,10,10,,,,0.00,0,,-1
2014-2-4,26,22,19,21,18,14,86,75,64,30.25,30.09,29.93,10,6,1,16,10,22,0.00,8,,35
2014-2-5,19,12,6,16,5,-4,86,68,57,30.63,30.40,30.03,10,8,2,14,8,22,0.00,8,,318
2014-2-6,12,5,-2,-2,-6,-9,85,62,44,30.64,30.56,30.48,10,10,10,9,4,,0.00,1,,352
2014-2-7,19,7,-5,9,-1,-11,92,65,45,30.47,30.38,30.24,10,10,10,7,2,,0.00,6,,117
2014-2-8,30,24,19,23,16,9,80,68,58,30.23,30.16,30.09,10,10,9,13,4,,0.00,8,,189
2014-2-9,28,24,17,25,18,10,93,76,59,30.37,30.24,30.12,10,6,2,10,5,,0.00,8,,1
2014-2-10,19,14,8,10,0,-4,73,55,42,30.48,30.42,30.35,10,10,9,12,7,17,0.00,3,,13
2014-2-11,26,14,1,3,0,-6,85,55,34,30.50,30.40,30.27,10,10,10,8,4,,0.00,0,,55
2014-2-12,41,23,5,12,6,-2,79,51,26,30.27,30.11,29.99,10,10,10,7,1,,0.00,1,,172
2014-2-13,51,35,19,30,22,10,86,64,40,29.98,29.87,29.76,10,10,7,16,5,21,0.00,0,,235
2014-2-14,42,32,21,37,23,10,93,75,61,30.13,29.85,29.61,10,8,4,14,5,24,0.83,5,,308
2014-2-15,37,24,10,25,15,7,92,66,45,30.14,30.05,29.92,10,10,10,12,4,,0.23,4,,156
2014-2-16,37,32,28,27,26,23,86,74,65,30.22,30.11,30.01,10,10,5,9,5,,0.00,5,,50
2014-2-17,55,45,35,37,26,18,76,54,26,30.08,29.96,29.81,10,10,8,17,10,29,0.00,4,,214
2014-2-18,66,48,30,28,24,19,69,39,21,30.06,29.91,29.76,10,10,10,24,9,33,0.00,0,,200
2014-2-19,57,44,30,36,27,21,86,49,25,30.07,29.91,29.67,10,10,7,15,5,26,0.00,2,,123
2014-2-20,71,53,35,55,40,21,88,67,43,29.82,29.59,29.31,10,10,7,34,14,54,0.35,5,Thunderstorm,208
2014-2-21,57,45,33,21,14,10,52,30,16,30.00,29.92,29.80,10,10,10,20,12,36,0.00,0,,247
2014-2-22,59,44,30,32,22,14,75,41,25,30.03,29.95,29.87,10,10,10,13,5,18,0.00,2,,43
2014-2-23,42,34,24,27,14,9,75,47,33,30.34,30.21,30.01,10,10,10,16,10,24,0.00,2,,29
2014-2-24,41,30,19,16,10,7,86,46,24,30.38,30.27,30.17,10,10,10,12,6,16,0.00,2,,61
2014-2-25,33,25,17,18,12,9,74,55,35,30.38,30.28,30.21,10,9,2,14,6,24,0.00,3,,1
2014-2-26,28,18,8,10,2,-2,79,48,29,30.39,30.22,30.01,10,9,2,13,8,21,0.00,1,,295
2014-2-27,33,27,21,10,3,-4,63,38,22,30.15,30.06,30.00,10,10,10,14,7,16,0.00,0,,18
2014-2-28,48,34,21,28,13,0,65,40,27,30.03,29.95,29.87,10,10,10,17,10,24,0.00,2,,159